Location: Taylor Dark Sky Site
(39.1017°N, 87.9564°W)
Time: 05:04:47
(UTC-05:00)

Amateur Radio Satellites - All Passes

Search period start: 31 May 2016 04:34
Search period end: 01 June 2016 04:34
Location: Taylor Dark Sky Site, 39.1017°N, 87.9564°W

Satellite Date Start Highest point End Downlink Frequencies (MHz)
Time Altitude Azimuth
STARS 31 May 04:40:19 04:44:35 48° 260° (W) 04:48:51 437.465
YUBILEINY 31 May 04:47:46 04:55:06 31° 276° (W) 05:02:29 435.215
CUBESAT XI-V 31 May 04:57:20 05:01:38 37° 71° (ENE) 05:05:59 437.345
MOZHAYETS 4 31 May 04:59:29 05:03:04 23° 266° (W) 05:06:41
Cosmos 2504 31 May 05:16:33 05:25:01 66° 267° (W) 05:33:46 435.465 / 435.565
ITAMSAT 1 31 May 05:25:10 05:27:45 14° 299° (WNW) 05:30:21 435.822/435.867
HORYU 2 31 May 05:33:32 05:37:57 64° 101° (E) 05:42:21 437.375
Cosmos 2491 31 May 05:43:35 05:50:47 27° 291° (WNW) 05:58:01 435.465 / 435.565
AO-85 31 May 05:46:37 05:52:01 61° 304° (NW) 05:57:19 145.980
BRITE-PL 31 May 05:49:16 05:51:07 12° 87° (E) 05:52:56 437.365/2234.400
CUTE-I 31 May 05:49:37 05:51:17 11° 89° (E) 05:52:57 437.470
STRAND 1 31 May 06:13:28 06:17:11 21° 65° (ENE) 06:20:57 437.568
LilacSat-2 31 May 06:15:26 06:17:45 15° 93° (E) 06:20:04 437.200
AO-7 31 May 06:17:25 06:24:33 33° 301° (WNW) 06:31:42 29.400- 29.500
NOAA 15 31 May 06:22:50 06:27:43 37° 98° (E) 06:32:33 137.62
JUGNU 31 May 06:29:45 06:31:28 11° 180° (S) 06:33:11 437.505
CUBESAT XI-V 31 May 06:35:38 06:39:07 20° 267° (W) 06:42:37 437.345
Cubesat XI-IV 31 May 06:41:47 06:46:46 38° 98° (E) 06:51:45 437.490
GONETS M04 31 May 06:48:59 06:51:07 11° 57° (ENE) 06:53:14
NOAA 18 31 May 07:12:03 07:17:33 86° 105° (ESE) 07:23:04 137.9125
HORYU 2 31 May 07:12:11 07:13:57 12° 297° (WNW) 07:15:43 437.375
SO-50 31 May 07:14:03 07:16:52 15° 41° (NE) 07:19:38 436.795
Cosmos 2504 31 May 07:14:55 07:16:47 11° 285° (WNW) 07:18:40 435.465 / 435.565
HO-68 31 May 07:25:06 07:27:55 12° 89° (E) 07:30:43 435.675
BRITE-PL 31 May 07:25:16 07:30:11 63° 286° (WNW) 07:34:41 437.365/2234.400
CUTE-I 31 May 07:26:31 07:31:55 81° 285° (WNW) 07:37:16 437.470
GOMX 1 31 May 07:29:30 07:34:01 64° 100° (E) 07:38:15 467.674
AO-85 31 May 07:31:29 07:33:32 12° 323° (NW) 07:35:34 145.980
AIST 1 31 May 07:42:24 07:46:29 39° 78° (ENE) 07:50:30
Cosmos 2499 31 May 07:47:38 07:53:21 19° 64° (ENE) 07:59:06 435.465 / 435.565
LilacSat-2 31 May 07:48:45 07:52:08 32° 288° (WNW) 07:55:31 437.200
STRAND 1 31 May 07:51:10 07:56:01 45° 261° (W) 08:00:56 437.568
DOVE 4 31 May 07:58:10 08:02:25 59° 100° (E) 08:06:30 437.250
CINEMA 3 31 May 08:00:24 08:03:02 16° 93° (E) 08:05:41 145.822/145.860
PRISM 31 May 08:01:55 08:05:48 40° 72° (ENE) 08:09:44 437.425
NOAA 15 31 May 08:02:56 08:07:18 27° 294° (WNW) 08:11:39 137.62
M-CUBED/EXP-1 PRIME 31 May 08:12:23 08:14:09 14° 100° (E) 08:15:54 437.505
SEEDS 31 May 08:20:48 08:23:58 20° 94° (E) 08:27:06 437.485
Cubesat XI-IV 31 May 08:22:14 08:26:38 26° 294° (WNW) 08:31:02 437.490
CANX-2 31 May 08:25:40 08:29:39 36° 98° (E) 08:33:36 2200.000
PCSat 31 May 08:27:48 08:32:45 37° 110° (ESE) 08:37:43 145.827
SRMSAT 31 May 08:30:52 08:32:33 11° 179° (S) 08:34:14 437.500
GONETS M04 31 May 08:41:16 08:49:54 63° 79° (E) 08:58:29
UWE-3 31 May 08:44:42 08:45:09 10° 91° (E) 08:45:36 435.000/436.395/437.385
CUTE 1.7 + AOD 2 31 May 08:51:55 08:56:11 65° 101° (E) 09:00:26 437.475
SO-50 31 May 08:53:15 08:57:56 76° 240° (WSW) 09:02:26 436.795
NOAA 18 31 May 08:55:02 08:57:26 13° 301° (WNW) 08:59:53 137.9125
AAUSAT CUBESAT 2 31 May 08:57:23 09:01:04 29° 96° (E) 09:04:43 437.432
O/OREOS (USA 219) 31 May 08:58:12 09:02:46 83° 109° (ESE) 09:07:19 437.305
COMPASS 1 31 May 08:58:43 09:02:40 38° 98° (E) 09:06:36 437.405
HO-68 31 May 09:09:21 09:16:35 82° 106° (ESE) 09:23:46 435.675
GOMX 1 31 May 09:09:55 09:11:26 12° 299° (WNW) 09:12:57 467.674
CUTE-I 31 May 09:10:04 09:11:04 11° 302° (WNW) 09:12:05 437.470
Oscar 11 31 May 09:13:12 09:16:08 18° 93° (E) 09:19:04 145.826/435.025
AIST 1 31 May 09:21:09 09:23:41 15° 274° (W) 09:26:13
ANTELSAT 31 May 09:21:34 09:24:10 16° 66° (ENE) 09:26:46 437.575/2403.000
ZACube-1 31 May 09:34:49 09:38:25 27° 96° (E) 09:42:05 437.345
AUBIESAT-1 31 May 09:35:16 09:38:28 46° 291° (WNW) 09:41:42 437.475
CINEMA 3 31 May 09:36:31 09:40:19 35° 288° (WNW) 09:44:07 145.822/145.860
DOVE 4 31 May 09:38:10 09:39:34 11° 297° (WNW) 09:40:55 437.250
Cosmos 2499 31 May 09:38:50 09:47:37 88° 84° (E) 09:56:31 435.465 / 435.565
PRISM 31 May 09:38:51 09:41:17 15° 267° (W) 09:43:44 437.425
M-CUBED/EXP-1 PRIME 31 May 09:46:00 09:48:47 26° 294° (WNW) 09:51:35 437.505
CUSAT 1 31 May 09:53:18 09:56:43 14° 77° (ENE) 10:00:20 437.405
SEEDS 31 May 09:55:54 09:59:42 32° 289° (WNW) 10:03:29 437.485
CUBEBUG 2 31 May 09:57:57 10:02:07 70° 285° (WNW) 10:06:22 437.445
CANX-2 31 May 10:02:14 10:05:13 19° 293° (WNW) 10:08:12 2200.000
BEESAT 3 31 May 10:04:05 10:07:33 31° 114° (ESE) 10:11:03 437.485
FUNcube-1 31 May 10:10:08 10:14:21 66° 101° (E) 10:18:38 145.935
PCSat 31 May 10:11:25 10:16:10 30° 308° (NW) 10:20:57 145.827
UNISAT 6 31 May 10:15:07 10:19:25 63° 74° (ENE) 10:23:39 437.425
UWE-3 31 May 10:17:48 10:21:58 61° 285° (WNW) 10:26:11 435.000/436.395/437.385
TIGRISAT 31 May 10:21:13 10:25:31 69° 75° (ENE) 10:29:46 435.000
DELFI C3 31 May 10:28:06 10:32:06 58° 100° (E) 10:36:04 145.870
CUTE 1.7 + AOD 2 31 May 10:30:10 10:31:27 11° 296° (WNW) 10:32:44 437.475
AAUSAT CUBESAT 2 31 May 10:33:08 10:36:23 22° 291° (WNW) 10:39:37 437.432
COMPASS 1 31 May 10:35:08 10:37:56 17° 293° (WNW) 10:40:42 437.405
GONETS M04 31 May 10:39:16 10:45:59 26° 278° (W) 10:52:42
O/OREOS (USA 219) 31 May 10:41:37 10:42:46 11° 308° (NW) 10:43:55 437.305
HUMSAT D 31 May 10:42:38 10:46:32 37° 98° (E) 10:50:27 437.325/437.525
QB50P1 31 May 10:45:42 10:49:04 24° 69° (ENE) 10:52:27 145.935-145.965
POPSAT HIP 1 31 May 10:45:45 10:49:06 23° 68° (ENE) 10:52:27 437.405
Oscar 11 31 May 10:48:22 10:52:23 38° 288° (WNW) 10:56:25 145.826/435.025
QB50P2 31 May 10:49:16 10:52:51 27° 69° (ENE) 10:56:26 145.880/145.840
POLYITAN 1 31 May 10:51:45 10:55:20 28° 70° (ENE) 10:58:56 437.675
ANTELSAT 31 May 10:56:24 11:00:32 43° 261° (W) 11:04:38 437.575/2403.000
HO-68 31 May 10:58:40 11:03:27 20° 303° (WNW) 11:08:14 435.675
NANOSAT C BR1 31 May 11:01:13 11:05:00 33° 71° (ENE) 11:08:47 145.865
ZACube-1 31 May 11:11:13 11:14:35 24° 291° (WNW) 11:18:01 437.345
BEESAT 2 31 May 11:14:34 11:18:31 73° 301° (WNW) 11:22:31 435.950
CUBEBUG 1 31 May 11:18:53 11:19:36 10° 90° (E) 11:20:18 437.445
JAS-2 31 May 11:28:10 11:33:52 24° 59° (ENE) 11:39:44 435.910
ESTCUBE 1 31 May 11:30:16 11:33:53 23° 95° (E) 11:37:29 437.505/2401.250
CUSAT 1 31 May 11:30:42 11:37:19 83° 97° (E) 11:45:14 437.405
Cosmos 2499 31 May 11:34:10 11:39:34 18° 281° (WNW) 11:45:01 435.465 / 435.565
VELOX 1 31 May 11:35:11 11:37:58 16° 93° (E) 11:40:44 145.980
DUCHIFAT 1 31 May 11:37:15 11:41:27 84° 77° (ENE) 11:45:41 145.980
BUGSAT 1 31 May 11:38:08 11:42:01 38° 72° (ENE) 11:45:52 437.445
50 SAT 31 May 11:38:17 11:40:54 18° 94° (E) 11:43:30 437.505
BEESAT 3 31 May 11:42:08 11:45:16 22° 311° (NW) 11:48:26 437.485
FUNcube-1 31 May 11:49:07 11:50:03 11° 296° (WNW) 11:50:59 145.935
UNISAT 6 31 May 11:56:06 11:56:30 10° 270° (W) 11:56:53 437.425
UKube-1 31 May 11:56:24 11:59:25 18° 94° (E) 12:02:24 .
DANDE 31 May 12:03:36 12:09:21 73° 95° (E) 12:16:50 436.750
DELFI C3 31 May 12:05:22 12:06:26 11° 296° (WNW) 12:07:30 145.870
AISAT 31 May 12:10:43 12:14:56 43° 99° (E) 12:19:05 437.250
HUMSAT D 31 May 12:19:05 12:21:53 18° 293° (WNW) 12:24:42 437.325/437.525
QB50P1 31 May 12:21:07 12:24:43 27° 264° (W) 12:28:20 145.935-145.965
POPSAT HIP 1 31 May 12:21:07 12:24:44 27° 264° (W) 12:28:22 437.405
AIST 2 31 May 12:21:36 12:25:16 32° 114° (ESE) 12:28:59 435.215
QB50P2 31 May 12:25:13 12:28:36 23° 265° (W) 12:32:01 145.880/145.840
POLYITAN 1 31 May 12:27:46 12:31:07 23° 265° (W) 12:34:28 437.675
Oscar 19 31 May 12:31:34 12:35:42 25° 66° (ENE) 12:39:52 437.125/150
NANOSAT C BR1 31 May 12:37:47 12:40:47 19° 266° (W) 12:43:48 145.865
AO-85 31 May 12:41:27 12:43:36 13° 38° (NE) 12:45:42 145.980
DX 1 31 May 12:50:05 12:54:28 86° 283° (WNW) 12:58:47 434.975-435.025
CUBEBUG 1 31 May 12:51:58 12:56:17 63° 285° (WNW) 13:00:33 437.445
SPROUT 31 May 12:59:19 13:03:32 58° 101° (E) 13:07:43 437.525
ESTCUBE 1 31 May 13:06:41 13:10:42 32° 290° (WNW) 13:14:42 437.505/2401.250
TISAT 1 31 May 13:08:36 13:11:31 18° 94° (E) 13:14:26 437.305
VELOX 1 31 May 13:10:27 13:14:37 42° 288° (WNW) 13:18:45 145.980
JAS-2 31 May 13:10:33 13:17:59 76° 257° (WSW) 13:25:55 435.910
50 SAT 31 May 13:11:27 13:14:37 27° 289° (WNW) 13:17:47 437.505
BUGSAT 1 31 May 13:14:52 13:17:31 16° 267° (W) 13:20:09 437.445
CUSAT 1 31 May 13:15:35 13:20:32 20° 298° (WNW) 13:25:58 437.405
ITAMSAT 1 31 May 13:24:50 13:26:58 13° 60° (ENE) 13:29:07 435.822/435.867
Gurwin Techsat 1B 31 May 13:27:46 13:32:32 35° 69° (ENE) 13:37:19 435.225
UKube-1 31 May 13:31:36 13:35:34 36° 289° (WNW) 13:39:29 .
AO-7 31 May 13:34:06 13:38:23 15° 48° (NE) 13:42:41 29.400- 29.500
AISAT 31 May 13:48:13 13:51:03 17° 295° (WNW) 13:53:50 437.250
DANDE 31 May 13:48:47 13:53:16 20° 299° (WNW) 13:58:28 436.750
Cosmos 2491 31 May 13:57:06 14:04:30 29° 70° (ENE) 14:11:46 435.465 / 435.565
AIST 2 31 May 14:00:28 14:03:47 23° 311° (NW) 14:07:09 435.215
Oscar 19 31 May 14:09:57 14:14:47 39° 262° (W) 14:19:39 437.125/150
SWISSCUBE 31 May 14:16:33 14:20:18 22° 95° (E) 14:24:03 437.505
AO-85 31 May 14:20:15 14:24:54 89° 59° (ENE) 14:29:06 145.980
ITUPSAT 1 31 May 14:25:00 14:28:53 24° 95° (E) 14:32:46 437.325
SPROUT 31 May 14:37:19 14:38:58 12° 296° (WNW) 14:40:37 437.525
TISAT 1 31 May 14:43:30 14:47:14 33° 289° (WNW) 14:50:58 437.305
BEESAT 31 May 14:45:10 14:49:41 40° 99° (E) 14:54:10 436.000
ITAMSAT 1 31 May 15:00:33 15:05:43 81° 256° (WSW) 15:10:56 435.822/435.867
JAS-2 31 May 15:00:57 15:04:10 13° 276° (W) 15:07:28 435.910
Gurwin Techsat 1B 31 May 15:08:00 15:12:29 28° 264° (W) 15:17:00 435.225
AO-7 31 May 15:21:28 15:29:39 70° 68° (ENE) 15:37:55 29.400- 29.500
YUBILEINY 31 May 15:49:22 15:57:53 64° 92° (E) 16:06:27 435.215
Cosmos 2491 31 May 15:53:17 16:01:47 59° 269° (W) 16:10:13 435.465 / 435.565
SWISSCUBE 31 May 15:53:47 15:58:10 36° 290° (WNW) 16:02:32 437.505
ITUPSAT 1 31 May 16:02:25 16:06:44 34° 291° (WNW) 16:11:02 437.325
Cosmos 2504 31 May 16:03:54 16:08:30 18° 79° (E) 16:13:15 435.465 / 435.565
KKS-1 31 May 16:07:11 16:11:14 34° 98° (E) 16:15:15 437.445
BEESAT 31 May 16:23:37 16:27:11 21° 294° (WNW) 16:30:44 436.000
RS-15 31 May 16:28:38 16:39:34 60° 112° (ESE) 16:51:07 29.354- 29.394
HORYU 2 31 May 16:30:18 16:34:33 50° 73° (ENE) 16:38:50 437.375
STARS 31 May 16:30:56 16:34:49 31° 97° (E) 16:38:41 437.465
MOZHAYETS 4 31 May 16:54:15 16:58:54 90° 76° (ENE) 17:03:33
BRITE-PL 31 May 16:57:22 17:00:59 18° 63° (ENE) 17:04:35 437.365/2234.400
NOAA 18 31 May 16:58:56 17:02:42 19° 62° (ENE) 17:06:27 137.9125
CUTE-I 31 May 17:09:28 17:13:03 19° 63° (ENE) 17:16:38 437.470
AO-7 31 May 17:16:38 17:23:00 24° 266° (W) 17:29:27 29.400- 29.500
PCSat 31 May 17:16:46 17:21:16 26° 50° (NE) 17:25:45 145.827
O/OREOS (USA 219) 31 May 17:31:51 17:34:01 13° 54° (NE) 17:36:13 437.305
NOAA 15 31 May 17:41:35 17:46:44 53° 72° (ENE) 17:51:54 137.62
KKS-1 31 May 17:44:16 17:47:34 21° 293° (WNW) 17:50:51 437.445
YUBILEINY 31 May 17:48:19 17:55:18 26° 292° (WNW) 18:02:20 435.215
Cosmos 2504 31 May 17:53:36 18:00:50 73° 279° (W) 18:08:34 435.465 / 435.565
Cubesat XI-IV 31 May 18:02:36 18:07:47 56° 72° (ENE) 18:12:59 437.490
STARS 31 May 18:07:38 18:10:59 22° 293° (WNW) 18:14:21 437.465
HORYU 2 31 May 18:09:09 18:11:23 14° 268° (W) 18:13:37 437.375
BEESAT 3 31 May 18:22:54 18:25:19 15° 45° (NE) 18:27:44 437.485
LilacSat-2 31 May 18:28:56 18:32:44 81° 257° (WSW) 18:36:32 437.200
CUBESAT XI-V 31 May 18:31:48 18:36:31 75° 285° (WNW) 18:41:11 437.345
BRITE-PL 31 May 18:33:11 18:38:50 69° 259° (W) 18:44:31 437.365/2234.400
GOMX 1 31 May 18:34:59 18:40:24 64° 74° (ENE) 18:45:39 467.674
NOAA 18 31 May 18:37:32 18:42:52 56° 258° (WSW) 18:48:16 137.9125
RS-15 31 May 18:41:42 18:52:28 44° 316° (NW) 19:03:51 29.354- 29.394
CUTE-I 31 May 18:47:26 18:52:37 55° 259° (W) 18:57:51 437.470
AUBIESAT-1 31 May 18:48:05 18:49:44 12° 62° (ENE) 18:51:22 437.475
M-CUBED/EXP-1 PRIME 31 May 18:57:27 19:00:24 20° 65° (ENE) 19:03:12 437.505
PCSat 31 May 18:59:41 19:04:52 46° 248° (WSW) 19:09:59 145.827
CINEMA 3 31 May 19:01:16 19:04:02 16° 66° (ENE) 19:06:45 145.822/145.860
DOVE 4 31 May 19:01:25 19:06:28 56° 74° (ENE) 19:11:18 437.250
O/OREOS (USA 219) 31 May 19:09:26 19:13:53 62° 251° (WSW) 19:18:16 437.305
SEEDS 31 May 19:12:54 19:14:42 13° 65° (ENE) 19:16:30 437.485
ISS 31 May 19:17:06 19:19:58 28° 134° (SE) 19:22:50 145.825
CANX-2 31 May 19:17:47 19:21:04 23° 69° (ENE) 19:24:23 2200.000
NOAA 15 31 May 19:23:13 19:26:48 18° 267° (W) 19:30:23 137.62
BEESAT 2 31 May 19:33:44 19:37:34 43° 55° (NE) 19:41:22 435.950
HO-68 31 May 19:36:24 19:43:17 54° 68° (ENE) 19:50:12 435.675
CUTE 1.7 + AOD 2 31 May 19:43:25 19:47:19 38° 72° (ENE) 19:51:14 437.475
Cubesat XI-IV 31 May 19:44:49 19:48:11 17° 268° (W) 19:51:34 437.490
AAUSAT CUBESAT 2 31 May 19:47:21 19:50:04 17° 67° (ENE) 19:52:48 437.432
COMPASS 1 31 May 19:48:50 19:52:03 22° 69° (ENE) 19:55:18 437.405
GONETS M04 31 May 19:50:29 19:53:49 13° 75° (ENE) 19:57:09
Cosmos 2504 31 May 19:53:27 19:55:50 12° 301° (WNW) 19:58:15 435.465 / 435.565
BEESAT 3 31 May 19:59:28 20:03:18 51° 243° (WSW) 20:07:07 437.485
PHONESAT 2.4 31 May 20:00:18 20:03:02 28° 154° (SSE) 20:05:48 2401.200-2431.200
STRAND 1 31 May 20:02:25 20:07:34 67° 102° (ESE) 20:12:41 437.568
Oscar 11 31 May 20:08:12 20:10:01 12° 64° (ENE) 20:11:50 145.826/435.025
AIST 1 31 May 20:10:46 20:14:21 25° 89° (E) 20:17:57
GOMX 1 31 May 20:15:35 20:18:47 16° 269° (W) 20:21:58 467.674
AUBIESAT-1 31 May 20:20:01 20:23:55 49° 255° (WSW) 20:27:34 437.475
Cosmos 2499 31 May 20:28:31 20:29:49 10° 74° (ENE) 20:31:08 435.465 / 435.565
ZACube-1 31 May 20:30:18 20:33:13 19° 68° (ENE) 20:36:08 437.345
M-CUBED/EXP-1 PRIME 31 May 20:31:13 20:34:49 29° 256° (WSW) 20:38:12 437.505
CINEMA 3 31 May 20:36:17 20:40:49 48° 261° (W) 20:45:11 145.822/145.860
DOVE 4 31 May 20:41:14 20:44:23 16° 268° (W) 20:47:28 437.250
AIST 2 31 May 20:44:16 20:47:09 18° 46° (NE) 20:50:02 435.215
SEEDS 31 May 20:45:51 20:49:55 53° 261° (W) 20:54:03 437.485
CANX-2 31 May 20:53:10 20:56:47 28° 264° (W) 21:00:26 2200.000
ISS 31 May 20:53:25 20:56:21 30° 330° (NNW) 20:59:19 145.825
CUBEBUG 2 31 May 20:54:38 20:58:58 82° 77° (ENE) 21:03:13 437.445
RS-15 31 May 21:01:13 21:09:25 20° 349° (N) 21:17:50 29.354- 29.394
FUNcube-1 31 May 21:04:36 21:08:33 42° 73° (ENE) 21:12:28 145.935
DANDE 31 May 21:04:37 21:07:40 12° 55° (NE) 21:10:35 436.750
BEESAT 2 31 May 21:12:46 21:15:01 15° 250° (WSW) 21:17:17 435.950
DELFI C3 31 May 21:13:10 21:16:34 28° 71° (ENE) 21:20:01 145.870
UWE-3 31 May 21:13:23 21:17:40 89° 261° (W) 21:21:52 435.000/436.395/437.385
PRISM 31 May 21:19:27 21:23:39 80° 104° (ESE) 21:27:47 437.425
CUTE 1.7 + AOD 2 31 May 21:20:38 21:23:18 16° 267° (W) 21:25:58 437.475
AAUSAT CUBESAT 2 31 May 21:21:26 21:25:16 36° 263° (W) 21:29:07 437.432
COMPASS 1 31 May 21:23:56 21:27:28 27° 264° (W) 21:31:03 437.405
HO-68 31 May 21:25:24 21:31:16 27° 265° (W) 21:37:11 435.675
HUMSAT D 31 May 21:33:24 21:36:33 22° 69° (ENE) 21:39:43 437.325/437.525
PHONESAT 2.4 31 May 21:36:27 21:39:36 83° 345° (NNW) 21:42:45 2401.200-2431.200
GONETS M04 31 May 21:40:17 21:49:02 76° 94° (E) 21:57:46
Oscar 11 31 May 21:41:25 21:45:38 57° 260° (W) 21:49:53 145.826/435.025
STRAND 1 31 May 21:43:17 21:46:09 15° 298° (WNW) 21:49:01 437.568
AIST 1 31 May 21:48:12 21:51:50 25° 285° (WNW) 21:55:30
ZACube-1 31 May 22:05:28 22:09:17 33° 263° (W) 22:13:04 437.345
CUSAT 1 31 May 22:08:20 22:15:39 59° 76° (ENE) 22:21:26 437.405
UNISAT 6 31 May 22:09:14 22:11:31 14° 92° (E) 22:13:48 437.425
Cosmos 2499 31 May 22:13:59 22:21:15 75° 94° (E) 22:29:06 435.465 / 435.565
TIGRISAT 31 May 22:14:54 22:17:27 15° 93° (E) 22:20:01 435.000
AIST 2 31 May 22:21:53 22:25:52 46° 244° (WSW) 22:29:50 435.215
ESTCUBE 1 31 May 22:29:08 22:32:21 19° 66° (ENE) 22:35:35 437.505/2401.250
VELOX 1 31 May 22:32:11 22:34:29 14° 64° (ENE) 22:36:47 145.980
ISS 31 May 22:32:46 22:33:38 11° 350° (N) 22:34:29 145.825
FUNcube-1 31 May 22:42:45 22:44:59 14° 268° (W) 22:47:14 145.935
DANDE 31 May 22:44:12 22:52:28 61° 76° (ENE) 22:59:29 436.750
DELFI C3 31 May 22:48:32 22:51:26 19° 266° (W) 22:54:23 145.870
ANTELSAT 31 May 22:48:47 22:52:51 38° 98° (E) 22:56:59 437.575/2403.000
UKube-1 31 May 22:50:41 22:53:03 15° 64° (ENE) 22:55:26 .
SO-50 31 May 23:05:48 23:10:29 47° 116° (ESE) 23:15:11 436.795
AISAT 31 May 23:06:54 23:10:56 34° 70° (ENE) 23:14:57 437.250
HUMSAT D 31 May 23:08:35 23:12:02 26° 264° (W) 23:15:31 437.325/437.525
PHONESAT 2.4 31 May 23:13:19 23:16:27 69° 6° (N) 23:19:35 2401.200-2431.200
RS-15 31 May 23:18:29 23:28:06 26° 25° (NNE) 23:37:47 29.354- 29.394
DUCHIFAT 1 31 May 23:24:03 23:26:16 14° 92° (E) 23:28:27 145.980
GONETS M04 31 May 23:40:15 23:46:44 22° 294° (WNW) 23:53:14
DX 1 31 May 23:44:05 23:48:26 70° 75° (ENE) 23:52:49 434.975-435.025
UNISAT 6 31 May 23:44:16 23:48:27 48° 287° (WNW) 23:52:42 437.425
CUBEBUG 1 31 May 23:46:13 23:50:40 90° 291° (WNW) 23:55:07 437.445
50 SAT 31 May 23:47:44 23:51:22 72° 258° (WSW) 23:55:01 437.505
TIGRISAT 31 May 23:50:13 23:54:19 44° 287° (WNW) 23:58:30 435.000
CUSAT 1 31 May 23:51:40 23:56:53 22° 279° (W) 00:01:24 437.405
SPROUT 31 May 23:51:42 23:55:40 38° 72° (ENE) 23:59:38 437.525
TISAT 1 01 Jun 00:00:21 00:02:18 13° 64° (ENE) 00:04:15 437.305
ESTCUBE 1 01 Jun 00:04:39 00:08:52 39° 262° (W) 00:13:07 437.505/2401.250
VELOX 1 01 Jun 00:06:05 00:10:28 55° 259° (W) 00:14:52 145.980
QB50P1 01 Jun 00:06:12 00:10:18 49° 100° (E) 00:14:22 145.935-145.965
POPSAT HIP 1 01 Jun 00:06:17 00:10:22 48° 100° (E) 00:14:26 437.405
Cosmos 2499 01 Jun 00:10:09 00:15:18 20° 295° (WNW) 00:20:43 435.465 / 435.565
QB50P2 01 Jun 00:10:12 00:14:22 59° 101° (E) 00:18:31 145.880/145.840
ISS 01 Jun 00:10:28 00:11:18 11° 10° (N) 00:12:06 145.825
POLYITAN 1 01 Jun 00:12:41 00:16:51 60° 101° (E) 00:21:00 437.675
NANOSAT C BR1 01 Jun 00:21:46 00:25:57 73° 101° (E) 00:30:08 145.865
JAS-2 01 Jun 00:24:25 00:28:59 18° 87° (E) 00:33:14 435.910
UKube-1 01 Jun 00:24:28 00:28:40 49° 260° (W) 00:32:53 .
ANTELSAT 01 Jun 00:26:20 00:29:18 18° 293° (WNW) 00:32:16 437.575/2403.000
DANDE 01 Jun 00:28:02 00:34:36 28° 277° (W) 00:40:26 436.750
AISAT 01 Jun 00:44:05 00:47:26 21° 265° (W) 00:50:50 437.250
SO-50 01 Jun 00:47:14 00:51:11 24° 313° (NW) 00:55:09 436.795
PHONESAT 2.4 01 Jun 00:50:07 00:53:08 45° 202° (SSW) 00:56:09 2401.200-2431.200
BUGSAT 1 01 Jun 00:55:59 01:00:01 78° 102° (ESE) 01:04:01 437.445
DUCHIFAT 1 01 Jun 00:58:12 01:02:10 43° 287° (WNW) 01:06:07 145.980
SWISSCUBE 01 Jun 01:22:07 01:25:51 23° 67° (ENE) 01:29:36 437.505
SPROUT 01 Jun 01:28:54 01:31:44 17° 267° (W) 01:34:34 437.525
ITUPSAT 1 01 Jun 01:30:48 01:34:40 25° 67° (ENE) 01:38:34 437.325
RS-15 01 Jun 01:31:17 01:43:35 67° 54° (NE) 01:55:48 29.354- 29.394
TISAT 1 01 Jun 01:33:22 01:37:29 52° 260° (W) 01:41:37 437.305
QB50P1 01 Jun 01:43:33 01:45:39 14° 295° (WNW) 01:47:44 145.935-145.965
POPSAT HIP 1 01 Jun 01:43:35 01:45:44 14° 295° (WNW) 01:47:52 437.405
ISS 01 Jun 01:45:37 01:48:33 30° 29° (NNE) 01:51:29 145.825
Gurwin Techsat 1B 01 Jun 01:46:20 01:49:13 15° 91° (E) 01:52:06 435.225
QB50P2 01 Jun 01:48:08 01:49:40 12° 296° (WNW) 01:51:10 145.880/145.840
BEESAT 01 Jun 01:50:25 01:54:50 40° 71° (ENE) 01:59:17 436.000
POLYITAN 1 01 Jun 01:50:44 01:52:08 11° 296° (WNW) 01:53:31 437.675
YUBILEINY 01 Jun 02:01:21 02:08:47 30° 70° (ENE) 02:16:12 435.215
JAS-2 01 Jun 02:07:37 02:14:51 73° 287° (WNW) 02:21:12 435.910
Oscar 19 01 Jun 02:22:11 02:27:22 81° 104° (ESE) 02:32:28 437.125/150
Cosmos 2491 01 Jun 02:57:00 03:04:40 35° 85° (E) 03:12:20 435.465 / 435.565
SWISSCUBE 01 Jun 02:59:06 03:03:26 35° 262° (W) 03:07:48 437.505
KKS-1 01 Jun 03:04:13 03:08:02 28° 69° (ENE) 03:11:51 437.445
ITUPSAT 1 01 Jun 03:08:06 03:12:20 32° 263° (W) 03:16:37 437.325
ITAMSAT 1 01 Jun 03:14:41 03:19:34 39° 98° (E) 03:24:26 435.822/435.867
ISS 01 Jun 03:22:05 03:24:58 29° 226° (SW) 03:27:50 145.825
Gurwin Techsat 1B 01 Jun 03:24:19 03:29:35 65° 287° (WNW) 03:34:50 435.225
AO-7 01 Jun 03:25:26 03:31:48 23° 94° (E) 03:38:08 29.400- 29.500
STARS 01 Jun 03:26:40 03:30:15 25° 68° (ENE) 03:33:51 437.465
BEESAT 01 Jun 03:29:20 03:32:45 20° 266° (W) 03:36:12 436.000
RS-15 01 Jun 03:44:39 03:55:20 37° 255° (WSW) 04:05:59 29.354- 29.394
Cosmos 2504 01 Jun 03:46:24 03:54:23 41° 75° (ENE) 04:02:35 435.465 / 435.565
MOZHAYETS 4 01 Jun 03:54:42 03:59:14 74° 76° (ENE) 04:03:49
JAS-2 01 Jun 03:55:15 03:58:24 13° 307° (NW) 04:01:26 435.910
YUBILEINY 01 Jun 03:57:30 04:06:01 58° 269° (W) 04:14:33 435.215
Oscar 19 01 Jun 04:03:52 04:05:57 12° 300° (WNW) 04:08:03 437.125/150
HORYU 2 01 Jun 04:25:38 04:25:56 10° 91° (E) 04:26:14 437.375
